KUIPER-00439

导读

KUIPER-00439(NORAD编号:68941)是美国亚马逊柯伊伯(Project Kuiper)卫星互联网星座的一颗技术试验卫星,是亚马逊挑战SpaceX星链市场主导地位、搭建全球低轨卫星互联网的组成部分。 该卫星运行于近地轨道,旨在验证卫星互联网通信技术,为后续大规模组网积累经验。作为柯伊伯星座早期部署阶段的卫星,它承载着推进全球高速卫星互联网覆盖的战略目标,推动全球卫星互联网产业竞争与发展。目前该卫星处于在轨运行状态。

Basic Information
目录编号:
68941
目录名称:
KUIPER-00439
国际标识:
2026-098Y
轨道中心:
EARTH
卫星名称:
KUIPER-00439
卫星全名:
KUIPER-00439
卫星状态:
在轨 (已飞行128 天)
发射日期:
2026-04-30 UTC
国别 :
美国 (US)
星等 :
--
Orbit Information
数据来源 国际轨道数据
星历时间: 2026-09-05T06:13:06+0800
11小时前
查看轨道信息
半长轴: 7009.299km
偏心率: 0.0002077
轨道倾角: 51.903°
近地点辐角 30.315°
升交点赤经 63.067°
平近点角 329.793°
近地点: 629.706km
远地点: 632.618km
周期: 97.336分钟
每日圈数: 14.79418
Detailed Information
使用方式:
暂无
2D Orbit Map
3D Orbit Map
Orbit Altitude Analysis Chart
Orbit Inclination Analysis Chart
Orbit Comprehensive Analysis Chart
View Comprehensive Chart
Conjunction Data List
Event ID Objects TCA Miss Dist (km) Collision Risk Probability Collision Risk Index (CRI) Action
CDM_260905-180203-776606-894121
2026-09-05T
18:02:23+0000
1.142 km
极远距离
1.376773E-5 中风险 0.58
CDM_260905-171803-138106-894121
2026-09-05T
17:18:34+0000
2.375 km
极远距离
1.60886E-6 低风险 0.39